18. Juni 2016

Flugvorbereitung

Wetterbriefing:

Aktuelles  METAR/TAF (Mannheim-City):

METAR

EDFM 230650Z 13004KT CAVOK 06/05 Q1027

TAF

TAF EDFM 060519Z 0606/0621 15004KT 9999 FEW040

Wetterinformationen für Piloten:

DWD pc_met Flugwetter gebührenpflichtiges Selfbriefing
AEROWEB Frankreich Selfbriefing (Registrierung notwendig)
AustroControl Flugwetter kostenlose Basisinformationen
MeteoSchweiz Aviatik kostenlose Basisinformation

NOTAMS / VFR Bulletin / Flugplan

AIS Portal Flugvorbereitungsportal der DFS Flugsicherung

Routenplanung, Karten und Flugplätze:

FL95 VFR Flugplanung
rocketroute Europaweites IFR/VFR Routing
www.airports.de Flughafen – Informationen für Deutschland und Österreich

 

Allgemeine Informationen für Piloten:

Flugplatz Speyer Informationen von unserem Heimatflugplatz